Overview Statistics Trail Chart Weather Telemetry Raw packets
 

This is the latest recevied weather packets stored in our database for station/object OH2NJR. If no packets are shown the sender has not sent any weather packets the latest 10 day(s).

<< 1 2 3 4 >>
Time Temp. Humidity Pressure Rain* Wind** Luminosity Snow
1788572743 11.11° C 99% 994.2 hPa 0 mm - - -
1788571723 11.11° C 99% 994.2 hPa 0 mm - - -
1788570635 11.11° C 99% 994.2 hPa 0 mm - - -
1788569613 12.22° C 98% 994.5 hPa 0 mm - - -
1788568563 12.22° C 98% 994.7 hPa 0 mm - - -
1788567422 12.22° C - - 0 mm - - -
1788567421 12.22° C 97% 994.7 hPa 0 mm - - -
1788567418 12.22° C 97% 994.7 hPa 0 mm - - -
1788566429 11.67° C 97% 994.8 hPa 0 mm - - -
1788566426 11.67° C - - - - - -
1788566424 11.67° C 97% 994.8 hPa 0 mm - - -
1788565415 12.22° C 96% 994.8 hPa 0 mm - - -
1788564353 12.22° C 96% 994.9 hPa 0 mm - - -
1788563221 12.22° C 95% 995.1 hPa 0 mm - - -
1788563218 12.22° C 95% 995.1 hPa 0 mm - - -
1788562258 12.78° C 94% 995.2 hPa 0 mm - - -
1788561289 12.78° C 94% 995.2 hPa 0 mm - - -
1788561288 12.78° C 94% 995.2 hPa 0 mm - - -
1788560173 12.78° C 92% 995.4 hPa 0 mm - - -
1788559198 13.33° C 90% 995.4 hPa 0 mm - - -
1788558023 13.89° C 88% 995.5 hPa 0 mm - - -
1788557008 13.89° C - - 0 mm - - -
1788557003 13.89° C 88% 995.7 hPa 0 mm - - -
1788555887 13.89° C 88% 995.7 hPa 0 mm - - -
1788554768 13.33° C 87% - 0 mm - - -

* Rain latest hour (hover to see other rain measurements)
** Current wind speed in m/s (hover to see current wind gust speed)